Vertical_Velocity
-1 -0 0 -1 -0 1 -0 -2 -8 -15 -5 12 -8 -2 -5 -2 -1 -4 -3 -2 -2 -1 -4 -3 -3 -3 -3 -2 -2 0 3 3 1 0 2 -1 0 -0
-1 -2 -2 -2 1 -1 -3 -1 -2 -6 -18 -7 1 -5 -4 -4 -3 -5 -3 -4 -2 -0 -2 -2 -3 -2 1 -2 -0 1 -0 1 2 2 -1 -1 0 0
-3 -2 -1 0 0 -0 -0 -1 -1 -2 -11 11 -5 -1 -1 -6 -2 1 -3 -4 -2 -0 -1 -1 -1 0 -4 -2 1 -1 -1 -0 -1 -1 -0 1 1 2
-1 0 -2 -1 -1 -2 -3 -0 -1 -0 -8 -8 -0 -0 -3 -3 -4 -5 -1 -1 -3 -1 -0 -0 -1 -1 -3 -1 -3 -4 -5 -4 -4 -1 -2 -3 -1 1
0 -2 0 -1 -0 0 1 0 -0 -1 -1 -7 -1 -2 -4 -3 -1 -1 -4 -2 -2 -3 -2 1 -1 0 -3 -2 -1 -2 -2 -4 -4 -3 -2 0 0 -0
-2 -2 -2 -2 -1 -0 -2 -3 -1 -1 -1 -1 1 -0 -3 3 -5 -12 -0 -2 -2 2 5 -1 2 -2 1 -1 -3 -0 -2 -6 -4 -3 -0 0 0 -1
-1 -2 -2 -2 -3 -5 -7 -3 -3 -4 -4 -4 -3 -2 3 0 -6 -4 -9 -5 2 -3 -1 0 0 -2 5 2 3 2 -3 -4 -2 -2 -3 -3 -1 -0
-1 -2 -2 -3 -2 -1 -1 0 -1 -6 -2 -6 -3 -5 3 -3 -0 -3 -8 -7 -7 13 -5 0 -5 1 3 1 5 -0 -4 -4 -4 -1 -2 -2 -0 0
-1 -3 -1 -1 -0 -1 1 2 2 3 0 -8 -6 0 -3 -0 0 3 -2 -5 -4 7 -5 -13 -0 -1 0 4 3 1 0 -2 -4 -2 -2 -2 -3 -3
-3 -2 -1 -1 -2 -4 -2 -0 -0 1 2 0 -3 -2 -3 -1 -2 -2 -3 -5 -0 5 -1 -21 1 2 0 9 3 2 0 -1 -1 -2 1 1 -2 -3
-1 -1 -4 -4 -1 -0 -5 -4 -0 2 0 -1 -1 -1 -1 1 -0 -5 1 -6 -3 4 13 -20 5 -8 -3 10 6 6 4 1 0 -0 -2 -2 -1 -2
1 0 1 -2 -2 -1 -4 -5 -3 -2 -1 3 2 4 0 2 1 -0 -4 -6 -4 -7 12 -14 -0 -15 -15 11 6 4 2 4 -1 -1 -2 -3 -2 -3
0 -0 -1 -2 -1 0 -1 -1 -2 -2 1 -1 -0 1 1 -1 0 2 -1 -4 -5 -0 1 -9 -4 2 -7 -24 9 5 -1 4 0 3 2 0 1 1
-2 -0 -1 -0 -1 -1 -0 -1 -3 -1 -0 1 1 -0 -1 0 2 1 -0 1 -1 -5 0 -0 -10 -7 -4 -1 -15 14 6 2 -5 -2 -4 -0 4 2
-2 -2 -2 -0 0 1 -1 -0 -1 -1 -1 -2 -0 0 -2 -3 -1 -0 4 -2 1 4 2 2 -3 -1 -3 -4 -10 1 -14 6 2 -5 -1 2 -3 -1
2 4 -1 -3 -4 -3 0 -1 -2 -1 -2 -3 -1 1 -0 0 0 -3 -1 -1 -2 7 7 -0 -1 -2 -3 -0 -5 -4 2 -12 -3 5 -3 -1 1 1
-2 0 0 1 -0 1 1 -0 -0 -0 0 -1 -2 -2 -1 -3 3 -1 -1 1 -4 -5 -1 7 4 -1 1 -2 -6 3 -5 0 3 -5 -3 -5 7 1
0 -3 -1 -1 -2 -1 -1 1 0 0 -1 -1 -0 -2 -3 -3 -2 4 -4 -3 -3 -2 -2 -1 -2 -2 8 20 -0 -4 -1 -9 1 1 5 -5 -2 7
-2 -0 -2 -0 -2 -1 -1 1 0 -1 -2 -1 -3 -1 0 1 -4 -0 1 -1 1 -1 4 1 -3 -4 -7 -10 15 13 -15 1 -6 4 -1 2 -3 2
-3 -2 -1 0 -3 -1 -1 -0 -0 -0 1 0 3 0 -1 -3 -1 1 0 -4 -3 -0 -1 3 1 -1 -4 -10 -18 5 14 -7 -6 -8 -3 4 2 -0
-0 0 -1 0 -1 0 -1 -0 -1 -1 -2 -2 2 -0 0 -3 2 -0 -1 0 -1 -1 -1 1 1 2 -2 -1 -2 0 9 7 3 -5 -4 -6 -7 1
-0 1 1 -1 0 -1 -1 -1 0 -0 1 -1 0 1 1 1 -1 -2 -1 -3 1 -1 0 -1 -1 0 2 -2 -3 -3 -2 -2 7 3 -1 -2 -9 -9
0 1 1 0 0 -1 -1 0 -1 -1 -1 0 1 2 1 -2 2 1 -0 1 -1 -1 -4 1 3 3 1 -2 -0 -1 -1 -1 -7 -4 3 1 1 1
Height
3068 3064 3060 3056 3050 3045 3039 3033 3025 3017 3015 3015 3007 3001 2995 2989 2982 2973 2965 2958 2951 2945 2937 2931 2924 2920 2916 2913 2911 2908 2906 2903 2902 2900 2900 2899 2899 2899
3060 3056 3051 3046 3041 3035 3029 3025 3019 3010 2998 2997 2991 2984 2977 2970 2964 2955 2948 2942 2937 2931 2923 2916 2913 2909 2905 2902 2900 2898 2897 2895 2893 2891 2890 2889 2888 2888
3051 3047 3042 3036 3031 3026 3021 3015 3008 3000 2990 2985 2978 2970 2962 2954 2948 2939 2934 2928 2923 2918 2912 2908 2903 2898 2896 2893 2890 2888 2886 2883 2882 2881 2879 2878 2877 2876
3043 3037 3032 3027 3022 3016 3009 3003 2995 2988 2979 2970 2963 2955 2947 2941 2933 2926 2921 2917 2913 2908 2902 2900 2894 2891 2886 2882 2878 2876 2874 2871 2869 2868 2867 2866 2865 2865
3033 3028 3023 3018 3012 3005 2998 2990 2983 2976 2968 2958 2949 2942 2936 2930 2922 2917 2911 2907 2904 2897 2893 2891 2884 2883 2879 2873 2868 2863 2860 2857 2856 2854 2853 2853 2852 2853
3024 3019 3014 3007 3000 2993 2986 2979 2972 2964 2956 2947 2938 2930 2923 2919 2911 2905 2901 2897 2895 2889 2885 2883 2876 2873 2869 2863 2858 2853 2849 2847 2845 2844 2842 2841 2841 2840
3015 3010 3004 2997 2989 2982 2975 2966 2958 2950 2942 2934 2927 2920 2914 2908 2902 2897 2891 2886 2888 2882 2872 2875 2865 2863 2858 2854 2849 2845 2841 2838 2835 2833 2831 2830 2829 2829
3007 3001 2994 2988 2980 2972 2963 2955 2948 2939 2931 2923 2917 2910 2905 2900 2893 2888 2884 2878 2873 2877 2862 2862 2855 2852 2848 2843 2839 2835 2830 2828 2826 2823 2822 2820 2819 2818
2998 2991 2984 2977 2970 2961 2953 2945 2938 2932 2923 2915 2908 2903 2896 2892 2884 2879 2877 2872 2868 2863 2852 2847 2848 2842 2838 2835 2830 2826 2822 2819 2816 2814 2812 2810 2808 2806
2988 2981 2974 2966 2957 2949 2940 2932 2927 2921 2914 2908 2901 2895 2890 2886 2880 2872 2867 2861 2860 2856 2848 2835 2836 2831 2828 2827 2822 2817 2814 2811 2808 2806 2804 2801 2797 2794
2979 2971 2963 2955 2946 2937 2929 2922 2917 2911 2906 2901 2896 2890 2885 2880 2874 2866 2861 2854 2850 2847 2843 2829 2826 2820 2817 2817 2814 2810 2806 2803 2800 2798 2795 2791 2787 2782
2969 2962 2955 2945 2936 2928 2920 2913 2906 2902 2898 2895 2892 2886 2879 2874 2869 2862 2855 2848 2842 2836 2836 2822 2817 2812 2803 2806 2805 2801 2798 2795 2793 2790 2786 2781 2776 2770
2959 2951 2942 2934 2926 2919 2911 2905 2899 2894 2890 2886 2881 2876 2872 2867 2863 2857 2851 2843 2836 2830 2827 2816 2810 2806 2799 2790 2795 2793 2789 2787 2784 2782 2778 2772 2767 2761
2948 2940 2932 2925 2917 2910 2904 2898 2893 2888 2883 2878 2874 2869 2864 2861 2856 2849 2844 2837 2832 2824 2819 2813 2803 2798 2792 2786 2783 2784 2781 2778 2774 2771 2767 2762 2758 2752
2939 2931 2923 2916 2909 2903 2898 2892 2887 2882 2876 2872 2868 2863 2858 2852 2847 2840 2836 2830 2825 2820 2814 2806 2799 2792 2787 2780 2774 2774 2768 2769 2767 2762 2757 2752 2745 2740
2931 2924 2916 2909 2902 2897 2892 2888 2882 2876 2871 2865 2861 2856 2851 2845 2840 2833 2826 2821 2815 2814 2809 2800 2793 2786 2780 2776 2770 2766 2764 2757 2756 2753 2746 2741 2737 2731
2920 2913 2908 2901 2897 2893 2888 2882 2877 2872 2867 2862 2856 2850 2844 2838 2833 2827 2820 2814 2808 2802 2799 2796 2789 2781 2775 2769 2764 2762 2756 2752 2748 2742 2736 2731 2728 2720
2913 2906 2900 2896 2891 2887 2883 2879 2873 2867 2862 2856 2850 2844 2837 2831 2826 2821 2815 2808 2801 2796 2790 2785 2778 2773 2770 2767 2759 2754 2750 2744 2740 2734 2728 2719 2716 2712
2906 2900 2895 2891 2887 2883 2878 2873 2868 2863 2857 2851 2845 2839 2833 2826 2820 2814 2808 2802 2796 2790 2785 2778 2772 2765 2759 2755 2757 2750 2741 2737 2731 2727 2719 2712 2705 2702
2900 2895 2892 2888 2884 2880 2875 2870 2865 2859 2854 2848 2842 2835 2829 2821 2815 2808 2802 2795 2789 2784 2779 2775 2769 2762 2756 2750 2744 2744 2739 2729 2723 2716 2710 2704 2698 2693
2896 2892 2888 2885 2881 2877 2872 2868 2861 2856 2850 2844 2838 2832 2825 2817 2810 2803 2797 2792 2785 2780 2775 2771 2766 2760 2753 2747 2741 2737 2734 2728 2718 2708 2701 2694 2689 2685
2892 2888 2885 2882 2879 2874 2870 2865 2860 2854 2848 2843 2835 2828 2821 2813 2806 2799 2794 2787 2783 2777 2772 2767 2761 2756 2751 2744 2738 2731 2726 2721 2715 2706 2697 2689 2682 2675
2889 2886 2883 2880 2877 2873 2868 2863 2858 2852 2846 2839 2832 2825 2817 2810 2804 2798 2792 2786 2780 2775 2769 2764 2760 2755 2748 2742 2735 2728 2722 2715 2706 2700 2693 2685 2678 2671